• In Latvia
  • List of Countries
  • For 7 days
  • Water Temperature
  • Satellite Maps
  • Weather Map
  • Weather Widgets
  • user-avatar
    Login

    Hourly Weather Fakuoka

    Today, 23 September, Sunday

    Time Temperature Precipitation Wind Pressure Humidity
    00:00 +24°C° 0 mm 1 mps 741 mmHg 72%
    01:00 +24°C° 0 mm 1 mps 741 mmHg 72%
    02:00 +24°C° 0 mm 1 mps 741 mmHg 72%
    03:00 +23°C° 0 mm 2 mps 741 mmHg 74%
    04:00 +23°C° 0 mm 2 mps 742 mmHg 74%
    05:00 +23°C° 0 mm 1 mps 742 mmHg 75%
    06:00 +23°C° 0 mm 1 mps 742 mmHg 75%
    07:00 +24°C° 0 mm 1 mps 742 mmHg 70%
    08:00 +25°C° 0 mm 2 mps 742 mmHg 65%
    09:00 +25°C° 0 mm 2 mps 742 mmHg 62%
    10:00 +27°C° 0 mm 1 mps 742 mmHg 56%
    11:00 +28°C° 0 mm 1 mps 742 mmHg 50%
    12:00 +29°C° 0 mm 1 mps 742 mmHg 43%
    13:00 +29°C° 0 mm 1 mps 742 mmHg 43%
    14:00 +29°C° 0 mm 1 mps 741 mmHg 42%
    15:00 +30°C° 0 mm 1 mps 741 mmHg 41%
    16:00 +29°C° 0 mm 1 mps 741 mmHg 44%
    17:00 +28°C° 0 mm 1 mps 741 mmHg 47%
    18:00 +27°C° 0 mm 1 mps 741 mmHg 50%
    19:00 +27°C° 0 mm 1 mps 741 mmHg 51%
    20:00 +26°C° 0 mm 1 mps 741 mmHg 53%
    21:00 +26°C° 0 mm 1 mps 741 mmHg 55%
    22:00 +26°C° 0 mm 1 mps 741 mmHg 56%
    23:00 +25°C° 0 mm 1 mps 741 mmHg 58%

    Tomorrow, 24 September, Monday

    Time Temperature Precipitation Wind Pressure Humidity
    00:00 +25°C° 0 mm 1 mps 741 mmHg 59%
    01:00 +25°C° 0 mm 1 mps 741 mmHg 60%
    02:00 +25°C° 0 mm 1 mps 741 mmHg 61%
    03:00 +25°C° 0 mm 1 mps 742 mmHg 63%
    04:00 +24°C° 0 mm 1 mps 742 mmHg 64%
    05:00 +24°C° 0 mm 2 mps 742 mmHg 66%
    06:00 +24°C° 0 mm 2 mps 742 mmHg 68%
    07:00 +24°C° 0 mm 2 mps 742 mmHg 67%
    08:00 +25°C° 0 mm 3 mps 742 mmHg 67%
    09:00 +25°C° 0 mm 4 mps 742 mmHg 67%
    10:00 +25°C° 0 mm 4 mps 742 mmHg 65%
    11:00 +25°C° 0 mm 4 mps 742 mmHg 63%
    12:00 +26°C° 0 mm 4 mps 742 mmHg 61%
    13:00 +25°C° 0 mm 4 mps 742 mmHg 61%
    14:00 +25°C° 0 mm 4 mps 741 mmHg 61%
    15:00 +25°C° 0 mm 4 mps 741 mmHg 60%
    16:00 +23°C° 0 mm 4 mps 741 mmHg 61%
    17:00 +23°C° 0 mm 4 mps 741 mmHg 62%
    18:00 +22°C° 0 mm 3 mps 741 mmHg 64%
    19:00 +22°C° 0 mm 3 mps 741 mmHg 64%
    20:00 +22°C° 0 mm 3 mps 741 mmHg 64%
    21:00 +22°C° 0 mm 3 mps 742 mmHg 64%
    22:00 +22°C° 0 mm 3 mps 741 mmHg 64%
    23:00 +21°C° 0 mm 3 mps 741 mmHg 64%

    Day after tomorrow, 25 September, Tuesday

    Time Temperature Precipitation Wind Pressure Humidity
    00:00 +21°C° 0 mm 3 mps 741 mmHg 64%
    01:00 +21°C° 0 mm 3 mps 741 mmHg 65%
    02:00 +21°C° 0 mm 4 mps 741 mmHg 65%
    03:00 +20°C° 0 mm 4 mps 740 mmHg 66%
    04:00 +20°C° 0 mm 4 mps 740 mmHg 66%
    05:00 +20°C° 0 mm 4 mps 740 mmHg 67%
    06:00 +20°C° 0 mm 4 mps 740 mmHg 68%
    07:00 +21°C° 0 mm 4 mps 740 mmHg 66%
    08:00 +22°C° 0 mm 5 mps 741 mmHg 64%
    09:00 +23°C° 0 mm 5 mps 741 mmHg 62%
    10:00 +25°C° 0 mm 5 mps 741 mmHg 58%
    11:00 +26°C° 0 mm 5 mps 741 mmHg 55%
    12:00 +27°C° 0 mm 5 mps 740 mmHg 52%
    13:00 +27°C° 0 mm 5 mps 740 mmHg 52%
    14:00 +27°C° 0 mm 5 mps 740 mmHg 52%
    15:00 +28°C° 0 mm 5 mps 739 mmHg 52%
    16:00 +27°C° 0 mm 6 mps 739 mmHg 56%
    17:00 +26°C° 0 mm 6 mps 739 mmHg 61%
    18:00 +23°C° 0 mm 6 mps 739 mmHg 65%
    19:00 +23°C° 0 mm 6 mps 740 mmHg 67%
    20:00 +22°C° 0 mm 6 mps 740 mmHg 68%
    21:00 +21°C° 0 mm 6 mps 740 mmHg 70%
    22:00 +21°C° 0 mm 5 mps 740 mmHg 71%
    23:00 +21°C° 0 mm 5 mps 740 mmHg 73%

    26 September, Wednesday

    Time Temperature Precipitation Wind Pressure Humidity
    00:00 +21°C° 0 mm 4 mps 740 mmHg 74%
    01:00 +21°C° 0 mm 4 mps 739 mmHg 74%
    02:00 +21°C° 0 mm 4 mps 739 mmHg 75%
    03:00 +21°C° 0 mm 4 mps 739 mmHg 76%
    04:00 +21°C° 0 mm 4 mps 739 mmHg 77%
    05:00 +21°C° 0 mm 4 mps 739 mmHg 78%
    06:00 +21°C° 0 mm 4 mps 739 mmHg 79%
    07:00 +21°C° 0 mm 4 mps 740 mmHg 76%
    08:00 +22°C° 0 mm 5 mps 740 mmHg 73%
    09:00 +22°C° 0 mm 5 mps 740 mmHg 70%
    10:00 +23°C° 0 mm 5 mps 740 mmHg 67%
    11:00 +25°C° 0 mm 5 mps 740 mmHg 63%
    12:00 +24°C° 0 mm 6 mps 740 mmHg 60%
    13:00 +26°C° 0 mm 6 mps 739 mmHg 59%
    14:00 +26°C° 0 mm 6 mps 739 mmHg 57%
    15:00 +26°C° 0 mm 7 mps 739 mmHg 55%
    16:00 +26°C° 0 mm 7 mps 739 mmHg 58%
    17:00 +24°C° 0 mm 7 mps 739 mmHg 61%
    18:00 +23°C° 0 mm 7 mps 739 mmHg 64%
    19:00 +23°C° 0 mm 7 mps 739 mmHg 66%
    20:00 +22°C° 0 mm 6 mps 740 mmHg 68%
    21:00 +22°C° 0 mm 6 mps 740 mmHg 70%
    22:00 +21°C° 0 mm 6 mps 740 mmHg 71%
    23:00 +21°C° 0 mm 6 mps 740 mmHg 72%

    27 September, Thursday

    Time Temperature Precipitation Wind Pressure Humidity
    00:00 +21°C° 0 mm 6 mps 740 mmHg 74%
    01:00 +21°C° 0 mm 6 mps 739 mmHg 74%
    02:00 +21°C° 0 mm 5 mps 739 mmHg 74%
    03:00 +20°C° 0 mm 5 mps 739 mmHg 75%
    04:00 +20°C° 0 mm 5 mps 739 mmHg 75%
    05:00 +20°C° 0 mm 5 mps 739 mmHg 75%
    06:00 +20°C° 0 mm 5 mps 739 mmHg 75%
    07:00 +21°C° 0 mm 6 mps 739 mmHg 71%
    08:00 +22°C° 0 mm 6 mps 740 mmHg 67%
    09:00 +23°C° 0 mm 6 mps 740 mmHg 63%
    10:00 +24°C° 0 mm 6 mps 740 mmHg 60%
    11:00 +26°C° 0 mm 6 mps 739 mmHg 57%
    12:00 +27°C° 0 mm 6 mps 739 mmHg 54%
    13:00 +27°C° 0 mm 7 mps 739 mmHg 53%
    14:00 +28°C° 0 mm 7 mps 739 mmHg 53%
    15:00 +28°C° 0 mm 7 mps 738 mmHg 53%
    16:00 +27°C° 0 mm 7 mps 739 mmHg 57%
    17:00 +26°C° 0 mm 7 mps 739 mmHg 62%
    18:00 +24°C° 0 mm 7 mps 739 mmHg 66%
    19:00 +23°C° 0 mm 7 mps 739 mmHg 68%
    20:00 +23°C° 0 mm 6 mps 739 mmHg 70%
    21:00 +22°C° 0 mm 6 mps 740 mmHg 73%
    22:00 +22°C° 0 mm 6 mps 740 mmHg 74%
    23:00 +22°C° 0 mm 5 mps 739 mmHg 75%

    28 September, Friday

    Time Temperature Precipitation Wind Pressure Humidity
    00:00 +21°C° 0 mm 5 mps 739 mmHg 76%
    01:00 +21°C° 0 mm 5 mps 739 mmHg 77%
    02:00 +21°C° 0 mm 4 mps 739 mmHg 77%
    03:00 +21°C° 0 mm 4 mps 739 mmHg 78%
    04:00 +21°C° 0 mm 4 mps 739 mmHg 79%
    05:00 +20°C° 0 mm 4 mps 739 mmHg 79%
    06:00 +20°C° 0 mm 4 mps 740 mmHg 80%
    07:00 +21°C° 0 mm 4 mps 740 mmHg 77%
    08:00 +22°C° 0 mm 4 mps 740 mmHg 73%
    09:00 +23°C° 0 mm 4 mps 740 mmHg 69%
    10:00 +26°C° 0 mm 5 mps 740 mmHg 65%
    11:00 +27°C° 0 mm 5 mps 740 mmHg 61%
    12:00 +28°C° 0 mm 5 mps 740 mmHg 57%
    13:00 +28°C° 0 mm 5 mps 739 mmHg 56%
    14:00 +29°C° 0 mm 5 mps 739 mmHg 55%
    15:00 +29°C° 0 mm 6 mps 739 mmHg 54%
    16:00 +28°C° 0 mm 6 mps 739 mmHg 57%
    17:00 +27°C° 0 mm 6 mps 739 mmHg 61%
    18:00 +26°C° 0 mm 6 mps 739 mmHg 64%
    19:00 +26°C° 0 mm 5 mps 740 mmHg 66%
    20:00 +26°C° 0 mm 5 mps 740 mmHg 67%
    21:00 +25°C° 0 mm 5 mps 740 mmHg 68%
    22:00 +25°C° 0 mm 5 mps 740 mmHg 70%
    23:00 +25°C° 0 mm 5 mps 739 mmHg 71%
    Show more